Location: Caracas
(10.4880°N, 66.8792°W)
Time: 13:07:01
(UTC+00:00)

Meteosat 1 Rocket2 - Pass Details

Date: 03 August 2024
Orbit: 484 x 2282 km, 28.3° (Epoch: 15 September)

Event Time Altitude Azimuth Distance (km) Brightness Sun altitude
Rises 23:02:00 0° 228° (SW) 3,769 7.5 -3.6°
Reaches altitude 10° 23:05:20 10° 220° (SW) 2,517 6.5 -4.3°
Maximum altitude 23:10:31 36° 154° (SSE) 1,058 3.9 -5.6°
Drops below altitude 10° 23:14:21 10° 87° (E) 1,841 4.9 -6.4°
Enters shadow 23:15:17 - 82° (E) 2,182 5.3 -6.7°
